Morrisville, NC

12:26 PM EST on December 08, 2016 (GMT -0500)
Raleigh-Durham International

Weather History for KRDU - April, 2013

Change the Weather History Date:

Tuesday, April 9, 2013

  Actual Average Record
Temperature  
Mean Temperature 70 °F 59 °F  
Max Temperature 83 °F 71 °F 91 °F (1893)
Min Temperature 57 °F 46 °F 23 °F (1972)
Degree Days  
Heating Degree Days 0 8  
Month to date heating degree days 96 77  
Since 1 July heating degree days 3157 3073  
Cooling Degree Days 5 1  
Month to date cooling degree days 5 9  
Year to date cooling degree days 7 21  
Growing Degree Days 20 (Base 50)    
Moisture  
Dew Point 55 °F    
Average Humidity 65    
Maximum Humidity 93    
Minimum Humidity 37    
Precipitation  
Precipitation 0.00 in 0.11 in 2.09 in (1897)
Month to date precipitation 0.77 0.95  
Year to date precipitation 10.90 11.79  
Snow  
Snow 0.00 in 0.00 in 0.00 in (2002)
Month to date snowfall T 0.1  
Since 1 July snowfall 1.7 6.1  
Snow Depth 0.00 in    
Sea Level Pressure  
Sea Level Pressure 30.12 in    
Wind  
Wind Speed 8 mph (SW)    
Max Wind Speed 20 mph    
Max Gust Speed 24 mph    
Visibility 10 miles    
Events      
T = Trace of Precipitation, MM = Missing Value Source: NWS Daily Summary

Daily Weather History Graph

Daily Weather History Graph

Search for Another Location

Airport or City:

Trip Planner

Search our weather history database for the weather conditions in past years. The results will help you decide how hot, cold, wet, or windy it might be!

Date:

Astronomy

Apr. 09, 2013 Rise Set
Actual Time 6:49 AM EDT 7:43 PM EDT
Civil Twilight 6:23 AM EDT 8:09 PM EDT
Nautical Twilight 5:53 AM EDT 8:40 PM EDT
Astronomical Twilight 5:21 AM EDT 9:12 PM EDT
Moon 6:10 AM EDT (4/9) 7:17 PM EDT (4/9)
Length of Visible Light 13h 46m
Length of Day
12h 53m
Waning Crescent, 1% of the Moon is Illuminated
Apr 9
Waning Crescent
Apr 10
New
Apr 18
First Quarter
Apr 25
Full
May 2
Last Quarter

Hourly Weather History & Observations

Time (EDT) Temp. Heat Index Dew Point Humidity Pressure Visibility Wind Dir Wind Speed Gust Speed Precip Events Conditions
12:51 AM 64.4 °F - 53.6 °F 68% 30.12 in 10.0 mi SW 12.7 mph - N/A   Partly Cloudy
1:51 AM 63.0 °F - 54.0 °F 72% 30.12 in 10.0 mi SSW 9.2 mph - N/A   Partly Cloudy
2:51 AM 61.0 °F - 54.0 °F 78% 30.11 in 10.0 mi SW 9.2 mph - N/A   Partly Cloudy
3:51 AM 59.0 °F - 54.0 °F 83% 30.12 in 10.0 mi SW 6.9 mph - N/A   Partly Cloudy
4:51 AM 57.9 °F - 54.0 °F 87% 30.13 in 10.0 mi SW 4.6 mph - N/A   Partly Cloudy
5:51 AM 57.0 °F - 55.0 °F 93% 30.14 in 10.0 mi WSW 4.6 mph - N/A   Partly Cloudy
6:51 AM 57.0 °F - 55.0 °F 93% 30.16 in 10.0 mi SW 4.6 mph - N/A   Partly Cloudy
7:51 AM 60.1 °F - 57.0 °F 90% 30.17 in 10.0 mi SW 6.9 mph - N/A   Scattered Clouds
8:51 AM 64.0 °F - 57.0 °F 78% 30.19 in 10.0 mi WSW 10.4 mph - N/A   Partly Cloudy
9:51 AM 68.0 °F - 57.0 °F 68% 30.18 in 10.0 mi WSW 9.2 mph - N/A   Partly Cloudy
10:51 AM 72.0 °F - 57.9 °F 61% 30.18 in 10.0 mi WSW 10.4 mph - N/A   Partly Cloudy
11:51 AM 75.9 °F - 57.9 °F 54% 30.17 in 10.0 mi SW 6.9 mph - N/A   Partly Cloudy
12:51 PM 80.1 °F 80.6 °F 57.9 °F 47% 30.14 in 10.0 mi West 6.9 mph - N/A   Scattered Clouds
1:51 PM 81.0 °F 80.7 °F 55.0 °F 41% 30.13 in 10.0 mi Variable 3.5 mph - N/A   Scattered Clouds
2:51 PM 80.6 °F 80.3 °F 53.6 °F 39% 30.11 in 10.0 mi WSW 4.6 mph 17.3 mph N/A   Scattered Clouds
3:51 PM 82.0 °F 81.3 °F 54.0 °F 38% 30.08 in 10.0 mi Variable 3.5 mph 19.6 mph N/A   Scattered Clouds
4:51 PM 82.9 °F 82.0 °F 55.0 °F 38% 30.06 in 10.0 mi SW 13.8 mph - N/A   Scattered Clouds
5:51 PM 82.0 °F 81.6 °F 55.9 °F 41% 30.06 in 10.0 mi SW 13.8 mph 20.7 mph N/A   Scattered Clouds
6:51 PM 79.0 °F - 55.0 °F 44% 30.06 in 10.0 mi WSW 10.4 mph - N/A   Scattered Clouds
7:51 PM 73.9 °F - 55.0 °F 52% 30.06 in 10.0 mi SW 6.9 mph - N/A   Scattered Clouds
8:51 PM 72.0 °F - 55.0 °F 55% 30.08 in 10.0 mi SW 5.8 mph - N/A   Scattered Clouds
9:51 PM 72.0 °F - 55.0 °F 55% 30.09 in 10.0 mi SSW 8.1 mph - N/A   Partly Cloudy
10:51 PM 69.1 °F - 55.0 °F 61% 30.09 in 10.0 mi SW 8.1 mph - N/A   Partly Cloudy
11:51 PM 68.0 °F - 55.0 °F 63% 30.08 in 10.0 mi SW 8.1 mph - N/A   Partly Cloudy